K7UV Weather Reports


time (UTC)temp
C
wind
direction
speed
KPH
gust
KPH
rain 1hr
cm
rain 24hr
cm
rain mn
cm
humidity
%
barometer
mb
20260505112320 12 323 0.0 0.0 0.00 0.00 0.00 57 -103.8
20260505111840 12 323 0.0 0.0 0.00 0.00 0.00 57 -103.8
20260505111321 12 323 0.0 1.6 0.00 0.00 0.00 57 -103.8
20260505110822 12 323 0.0 1.6 0.00 0.00 0.00 58 -103.8
20260505110325 12 320 0.0 1.6 0.00 0.00 0.00 57 -103.8
20260505101815 13 150 1.6 4.8 0.00 0.00 0.00 53 -103.8
20260505101316 13 51 1.6 3.2 0.00 0.00 0.00 54 -103.9
20260505100815 13 120 1.6 4.8 0.00 0.00 0.00 53 -103.8
20260505100317 13 20 1.6 4.8 0.00 0.00 0.00 53 -103.8
20260505095814 13 164 1.6 6.4 0.00 0.00 0.00 53 -103.8
20260505095316 13 156 3.2 6.4 0.00 0.00 0.00 53 -103.8
20260505094816 13 160 0.0 3.2 0.00 0.00 0.00 53 -103.8
20260505094317 13 232 1.6 3.2 0.00 0.00 0.00 53 -103.8
20260505093816 13 165 0.0 3.2 0.00 0.00 0.00 54 -103.8
20260505093317 13 29 1.6 3.2 0.00 0.00 0.00 54 -103.8
20260505092817 13 336 1.6 4.8 0.00 0.00 0.00 54 -103.9
20260505092338 13 8 1.6 4.8 0.00 0.00 0.00 53 -103.9
20260505091817 13 354 0.0 4.8 0.00 0.00 0.00 54 -103.9
20260505091317 13 41 1.6 4.8 0.00 0.00 0.00 54 -103.8
20260505090837 13 349 1.6 4.8 0.00 0.00 0.00 55 -103.8
20260505090320 13 293 1.6 4.8 0.00 0.00 0.00 55 -103.8
20260505085819 13 309 0.0 3.2 0.00 0.00 0.00 54 -103.8
20260505085320 13 150 0.0 1.6 0.00 0.00 0.00 52 -103.8
20260505084821 13 150 0.0 4.8 0.00 0.00 0.00 52 -103.8
20260505084327 13 150 0.0 4.8 0.00 0.00 0.00 52 -103.8
20260505083826 13 168 1.6 3.2 0.00 0.00 0.00 53 -103.8
20260505083333 13 155 1.6 3.2 0.00 0.00 0.00 54 -103.8
20260505082815 13 326 0.0 6.4 0.00 0.00 0.00 55 -103.8
20260505082319 13 129 0.0 6.4 0.00 0.00 0.00 54 -103.8
20260505081848 13 157 1.6 6.4 0.00 0.00 0.00 54 -103.8
20260505081334 13 127 1.6 6.4 0.00 0.00 0.00 54 -103.8
20260505080836 13 179 1.6 9.7 0.00 0.00 0.00 55 -103.8
20260505080342 13 148 3.2 9.7 0.00 0.00 0.00 55 -103.8
20260505075816 13 167 1.6 6.4 0.00 0.00 0.00 56 -103.8
20260505075320 13 135 1.6 9.7 0.00 0.00 0.00 55 -103.8
20260505074819 14 169 4.8 9.7 0.00 0.00 0.00 54 -103.8
20260505074329 14 211 1.6 4.8 0.00 0.00 0.00 54 -103.8
20260505073849 14 167 1.6 6.4 0.00 0.00 0.00 53 -103.8
20260505073328 14 164 1.6 6.4 0.00 0.00 0.00 54 -103.8
20260505072829 14 195 1.6 4.8 0.00 0.00 0.00 55 -103.8
20260505072328 14 140 0.0 4.8 0.00 0.00 0.00 54 -103.8
20260505071819 14 148 1.6 11.3 0.00 0.00 0.00 55 -103.8
20260505071318 14 155 3.2 11.3 0.00 0.00 0.00 56 -103.8
20260505070838 14 183 3.2 8.0 0.00 0.00 0.00 55 -103.8
20260505070319 14 297 1.6 9.7 0.00 0.00 0.00 54 -103.8
20260505065858 15 165 4.8 9.7 0.00 0.00 0.00 53 -103.8
20260505065340 15 191 1.6 14.5 0.00 0.00 0.00 52 -103.8
20260505064847 15 153 1.6 14.5 0.00 0.00 0.00 51 -103.8
20260505064349 15 168 4.8 12.9 0.00 0.00 0.00 51 -103.8
20260505063828 15 148 3.2 11.3 0.00 0.00 0.00 49 -103.8
20260505063330 15 158 3.2 17.7 0.00 0.00 0.00 48 -103.8
20260505062832 15 170 4.8 17.7 0.00 0.00 0.00 47 -103.8
20260505062315 15 159 4.8 8.0 0.00 0.00 0.00 47 -103.8
20260505061815 15 178 3.2 6.4 0.00 0.00 0.00 47 -103.8
20260505061318 15 133 1.6 6.4 0.00 0.00 0.00 48 -103.8
20260505060839 15 160 1.6 9.7 0.00 0.00 0.00 48 -103.8
20260505060342 15 131 3.2 8.0 0.00 0.00 0.00 50 -103.8
20260505055831 15 156 4.8 9.7 0.00 0.00 0.00 50 -103.8
20260505055333 15 131 1.6 9.7 0.00 0.00 0.00 50 -103.8
20260505054835 16 131 3.2 12.9 0.00 0.00 0.00 49 -103.8
20260505054339 16 154 6.4 11.3 0.00 0.00 0.00 47 -103.8
20260505053817 16 180 4.8 11.3 0.00 0.00 0.00 45 -103.8
20260505053337 16 158 1.6 8.0 0.00 0.00 0.00 44 -103.8
20260505052815 16 162 3.2 9.7 0.00 0.00 0.00 42 -103.8
20260505052315 16 118 4.8 9.7 0.00 0.00 0.00 41 -103.8
20260505051815 16 197 3.2 11.3 0.00 0.00 0.00 42 -103.8
20260505051317 16 138 3.2 11.3 0.00 0.00 0.00 42 -103.8
20260505050817 15 200 3.2 16.1 0.00 0.00 0.00 43 -103.9
20260505050318 15 189 3.2 9.7 0.00 0.00 0.00 44 -103.9
20260505041341 15 81 0.0 0.0 0.00 0.00 0.00 45 -103.9
20260505040821 15 81 0.0 1.6 0.00 0.00 0.00 44 -103.9
20260505040324 15 81 0.0 1.6 0.00 0.00 0.00 44 -103.9
20260505035821 15 81 0.0 3.2 0.00 0.00 0.00 44 -103.9
20260505035323 15 82 0.0 3.2 0.00 0.00 0.00 44 -103.9
20260505034844 15 145 0.0 1.6 0.00 0.00 0.00 44 -103.9
20260505034326 15 145 0.0 3.2 0.00 0.00 0.00 45 -103.9
20260505033827 15 145 0.0 3.2 0.00 0.00 0.00 45 -104.0
20260505033328 15 146 0.0 0.0 0.00 0.00 0.00 45 -104.0
20260505032848 15 146 0.0 1.6 0.00 0.00 0.00 45 -104.0
20260505032327 15 146 1.6 1.6 0.00 0.00 0.00 45 -104.0
20260505031826 15 145 0.0 3.2 0.00 0.00 0.00 45 -104.0
20260505031327 15 145 0.0 1.6 0.00 0.00 0.00 45 -104.0
20260505030828 15 145 0.0 0.0 0.00 0.00 0.00 45 -104.0
20260505030331 15 145 0.0 1.6 0.00 0.00 0.00 44 -104.0
20260505025318 16 145 0.0 1.6 0.00 0.00 0.00 45 -104.0
20260505024818 16 145 0.0 1.6 0.00 0.00 0.00 45 -104.0
20260505024320 16 145 0.0 0.0 0.00 0.00 0.00 45 -104.0
20260505023820 16 145 0.0 0.0 0.00 0.00 0.00 44 -104.0
20260505023320 16 145 0.0 0.0 0.00 0.00 0.00 44 -104.0
20260505022820 17 145 0.0 0.0 0.00 0.00 0.00 44 -104.0
20260505022323 17 145 0.0 0.0 0.00 0.00 0.00 42 -104.0
20260505021823 17 145 0.0 0.0 0.00 0.00 0.00 41 -104.0
20260505021327 17 145 0.0 1.6 0.00 0.00 0.00 41 -104.0
20260505020828 18 145 0.0 3.2 0.00 0.00 0.00 40 -104.0
20260505020330 18 149 0.0 3.2 0.00 0.00 0.00 40 -104.0
20260505015827 18 208 0.0 1.6 0.00 0.00 0.00 39 -104.0
20260505015331 18 196 0.0 4.8 0.00 0.00 0.00 39 -104.0
20260505014831 18 161 1.6 4.8 0.00 0.00 0.00 38 -104.0
20260505014333 18 173 1.6 4.8 0.00 0.00 0.00 37 -104.0
20260505013834 19 165 1.6 8.0 0.00 0.00 0.00 37 -104.0
20260505013355 19 154 1.6 8.0 0.00 0.00 0.00 35 -104.0
20260505012852 20 162 1.6 4.8 0.00 0.00 0.00 36 -104.0
20260505012314 20 131 1.6 4.8 0.00 0.00 0.00 35 -104.0
20260505011816 20 149 3.2 4.8 0.00 0.00 0.00 34 -104.0
20260505011318 20 188 1.6 6.4 0.00 0.00 0.00 34 -104.0
20260505010818 20 160 3.2 8.0 0.00 0.00 0.00 33 -104.0
20260505010340 20 170 3.2 8.0 0.00 0.00 0.00 33 -104.0
20260505005838 20 164 0.0 4.8 0.00 0.00 0.00 33 -104.0
20260505005319 20 167 1.6 6.4 0.00 0.00 0.00 33 -104.0
20260505004819 21 172 3.2 6.4 0.00 0.00 0.00 31 -104.0
20260505004320 21 163 3.2 6.4 0.00 0.00 0.00 30 -104.0
20260505003819 21 216 1.6 9.7 0.00 0.00 0.00 31 -104.0
20260505003319 21 181 3.2 9.7 0.00 0.00 0.00 31 -104.0
20260505002817 21 165 1.6 6.4 0.00 0.00 0.00 32 -104.0
20260505002318 21 169 3.2 9.7 0.00 0.00 0.00 32 -104.0
20260505001816 21 138 1.6 9.7 0.00 0.00 0.00 31 -104.0
20260505001319 21 169 3.2 8.0 0.00 0.00 0.00 31 -104.0
20260505000819 21 157 1.6 11.3 0.00 0.00 0.00 31 -104.0
20260505000320 21 164 4.8 12.9 0.00 0.00 0.00 30 -104.0
20260504235817 22 172 6.4 12.9 0.00 0.00 0.00 31 -104.0
20260504235338 22 168 3.2 9.7 0.00 0.00 0.00 31 -104.0
20260504234818 22 150 4.8 16.1 0.00 0.00 0.00 31 -104.0
20260504234340 22 60 6.4 16.1 0.00 0.00 0.00 31 -104.0
20260504233820 22 192 3.2 12.9 0.00 0.00 0.00 26 -104.0
20260504233342 22 159 1.6 11.3 0.00 0.00 0.00 22 -104.0
20260504232821 22 160 3.2 8.0 0.00 0.00 0.00 22 -104.0
20260504232321 22 183 1.6 6.4 0.00 0.00 0.00 22 -104.0
20260504231837 22 156 3.2 6.4 0.00 0.00 0.00 19 -104.0
20260504231318 22 168 3.2 9.7 0.00 0.00 0.00 19 -104.0
20260504230817 23 202 3.2 9.7 0.00 0.00 0.00 20 -104.0
20260504230318 23 312 0.0 4.8 0.00 0.00 0.00 22 -104.0
20260504225814 23 160 1.6 4.8 0.00 0.00 0.00 21 -104.0
20260504225317 23 270 1.6 4.8 0.00 0.00 0.00 25 -104.0
20260504224817 23 314 1.6 9.7 0.00 0.00 0.00 27 -104.0
20260504224347 23 155 4.8 8.0 0.00 0.00 0.00 22 -104.0
20260504223827 23 155 0.0 6.4 0.00 0.00 0.00 27 -104.0
20260504223330 23 140 1.6 6.4 0.00 0.00 0.00 25 -104.0
20260504222831 23 162 3.2 6.4 0.00 0.00 0.00 24 -104.0
20260504222315 23 129 1.6 6.4 0.00 0.00 0.00 26 -104.0
20260504221834 23 161 3.2 6.4 0.00 0.00 0.00 24 -104.0
20260504221316 23 159 1.6 9.7 0.00 0.00 0.00 28 -104.0
20260504220817 23 146 3.2 8.0 0.00 0.00 0.00 24 -104.0
20260504220340 23 196 1.6 8.0 0.00 0.00 0.00 24 -104.0
20260504215817 23 146 3.2 8.0 0.00 0.00 0.00 24 -104.0
20260504215319 23 142 1.6 6.4 0.00 0.00 0.00 26 -104.0
20260504214839 23 157 3.2 8.0 0.00 0.00 0.00 23 -103.9
20260504214317 23 171 4.8 8.0 0.00 0.00 0.00 23 -103.9
20260504213835 23 340 1.6 4.8 0.00 0.00 0.00 25 -103.9
20260504213337 24 158 1.6 3.2 0.00 0.00 0.00 26 -103.9
20260504212815 24 199 1.6 9.7 0.00 0.00 0.00 26 -103.9
20260504212315 23 163 3.2 9.7 0.00 0.00 0.00 25 -103.9
20260504211815 24 303 1.6 3.2 0.00 0.00 0.00 27 -103.9
20260504211317 23 319 0.0 4.8 0.00 0.00 0.00 28 -103.9
20260504210816 23 13 3.2 6.4 0.00 0.00 0.00 23 -103.9
20260504210337 23 207 3.2 8.0 0.00 0.00 0.00 24 -103.9
20260504205851 23 323 3.2 8.0 0.00 0.00 0.00 24 -103.9
20260504205331 23 112 0.0 8.0 0.00 0.00 0.00 28 -103.9
20260504204830 23 163 3.2 8.0 0.00 0.00 0.00 23 -103.9
20260504204351 23 271 1.6 6.4 0.00 0.00 0.00 26 -103.9
20260504203830 23 158 1.6 6.4 0.00 0.00 0.00 26 -103.9
20260504203352 23 157 1.6 4.8 0.00 0.00 0.00 25 -103.9
20260504202832 23 328 1.6 9.7 0.00 0.00 0.00 24 -103.9
20260504202333 23 164 4.8 9.7 0.00 0.00 0.00 23 -103.9
20260504201814 23 304 3.2 6.4 0.00 0.00 0.00 26 -103.9
20260504201317 23 162 3.2 6.4 0.00 0.00 0.00 24 -103.8
20260504200817 23 148 1.6 8.0 0.00 0.00 0.00 26 -103.8
20260504200338 23 140 4.8 8.0 0.00 0.00 0.00 25 -103.8
20260504195814 23 293 3.2 6.4 0.00 0.00 0.00 27 -103.8
20260504195314 23 122 1.6 6.4 0.00 0.00 0.00 26 -103.8
20260504194815 23 148 3.2 6.4 0.00 0.00 0.00 26 -103.8
20260504194318 23 305 1.6 4.8 0.00 0.00 0.00 27 -103.8
20260504193819 23 136 1.6 4.8 0.00 0.00 0.00 29 -103.8
20260504193321 23 44 0.0 6.4 0.00 0.00 0.00 28 -103.8
20260504192822 22 155 1.6 6.4 0.00 0.00 0.00 30 -103.8
20260504192322 22 289 0.0 6.4 0.00 0.00 0.00 30 -103.8
20260504191818 22 158 3.2 6.4 0.00 0.00 0.00 25 -103.8
20260504191319 22 153 1.6 6.4 0.00 0.00 0.00 26 -103.8
20260504190818 23 146 4.8 6.4 0.00 0.00 0.00 24 -103.8
20260504190321 22 200 1.6 3.2 0.00 0.00 0.00 29 -103.8
20260504185820 22 6 0.0 4.8 0.00 0.00 0.00 29 -103.7
20260504185322 22 151 1.6 6.4 0.00 0.00 0.00 28 -103.7
20260504184819 22 123 1.6 6.4 0.00 0.00 0.00 30 -103.7
20260504184341 22 136 0.0 16.1 0.00 0.00 0.00 32 -103.7
20260504183820 22 207 1.6 4.8 0.00 0.00 0.00 28 -103.7
20260504183341 22 290 1.6 6.4 0.00 0.00 0.00 30 -103.7
20260504182821 22 165 3.2 6.4 0.00 0.00 0.00 28 -103.7
20260504182322 21 148 3.2 6.4 0.00 0.00 0.00 28 -103.7
20260504181838 21 311 1.6 6.4 0.00 0.00 0.00 29 -103.7
20260504181317 21 321 1.6 6.4 0.00 0.00 0.00 30 -103.7
20260504180818 21 155 1.6 4.8 0.00 0.00 0.00 31 -103.7
20260504180321 21 326 3.2 4.8 0.00 0.00 0.00 31 -103.7
20260504175840 21 125 1.6 6.4 0.00 0.00 0.00 31 -103.7
20260504175322 21 297 0.0 6.4 0.00 0.00 0.00 30 -103.7
20260504174823 21 116 1.6 6.4 0.00 0.00 0.00 33 -103.7
20260504174323 21 294 0.0 3.2 0.00 0.00 0.00 32 -103.7
20260504173823 21 288 1.6 6.4 0.00 0.00 0.00 32 -103.7
20260504173323 21 167 1.6 6.4 0.00 0.00 0.00 33 -103.7
20260504172823 21 126 0.0 1.6 0.00 0.00 0.00 36 -103.7
20260504172344 20 304 0.0 4.8 0.00 0.00 0.00 38 -103.7
20260504171824 20 145 0.0 4.8 0.00 0.00 0.00 34 -103.7
20260504171325 20 112 1.6 8.0 0.00 0.00 0.00 35 -103.7
20260504170825 20 158 3.2 4.8 0.00 0.00 0.00 34 -103.7
20260504170327 19 323 1.6 4.8 0.00 0.00 0.00 38 -103.7
20260504160335 17 345 0.0 3.2 0.00 0.00 0.00 41 -103.6
20260504150838 15 335 1.6 4.8 0.00 0.00 0.00 48 -103.6
20260504150346 15 5 0.0 3.2 0.00 0.00 0.00 47 -103.6
20260504141314 14 303 1.6 3.2 0.00 0.00 0.00 43 -103.6
20260504140822 15 302 1.6 3.2 0.00 0.00 0.00 41 -103.6
20260504140324 15 53 1.6 3.2 0.00 0.00 0.00 41 -103.6
20260504130822 10 124 0.0 1.6 0.00 0.00 0.00 52 -103.6
20260504130325 10 124 0.0 0.0 0.00 0.00 0.00 51 -103.6